Location: Maignaut
(43.8886°N, 0.4051°E)
Time: 09:56:19
(UTC+00:00)

CZ-4 R/B - Pass Details

Date: 27 February 2020
Orbit: 531 x 599 km, 97.8° (Epoch: 09 April)

Event Time Altitude Azimuth Distance (km) Brightness Sun altitude
Rises 19:15:04 0° 199° (SSW) 2,825 5.1 -17.3°
Reaches altitude 10° 19:17:40 10° 215° (SW) 1,922 4.5 -17.7°
Maximum altitude 19:20:53 21° 266° (W) 1,329 4.2 -18.3°
Drops below altitude 10° 19:24:05 10° 317° (NW) 1,911 4.8 -18.9°
Sets 19:26:40 0° 333° (NNW) 2,804 5.4 -19.3°
